一网星座-0207星 (ONEWEB-0207 )

导读 | 豆包AI

ONEWEB-0207是英国OneWeb卫星星座的组成卫星,于2021年4月25日成功发射。作为OneWeb全球卫星互联网组网的一环,它运行于低地球轨道,属于Ku/Ka频段通信卫星。依托OneWeb星座布局,该卫星可为全球偏远地区、高延迟场景提供高速低时延的宽带互联网接入,同时服务英国企业、政府及军事通信需求,推动全球网络覆盖普及,助力英国抢占低轨卫星频谱与轨道资源,是商业航天领域卫星互联网建设的重要节点。

Basic Information
目录编号:
48242
目录名称:
ONEWEB-0207
国际标识:
2021-031AJ
轨道中心:
EARTH
卫星名称:
一网星座-0207星
卫星全名:
一网星座-0207星 (ONEWEB-0207 )
卫星状态:
在轨 (已飞行1784 天)
发射日期:
2021-04-25 UTC
国别 :
英国 (GB)
星等 :
--
Orbit Information
数据来源 国际轨道数据 AOE轨道数据
星历时间 2026-03-14T05:05:22+0800
14小时前
查看轨道信息
2026-03-14T08:00:00+0800
11小时前
查看轨道信息
半长轴 7583.923km 7583.939km
偏心率 0.0001631 0.0001619
轨道倾角 87.898° 87.897°
近地点辐角 71.686° 57.559°
升交点赤经 308.712° 308.688°
平近点角 288.445° 156.101°
近地点 1204.549km 1204.574km
远地点 1207.023km 1207.03km
周期 109.547分钟 109.547分钟
每日圈数 13.145041 13.144998
Detailed Information
平衡模式:
三轴稳定
覆盖范围:
全球
运营商:
一网卫星公司
运营商所在国:
英国
制造商(研发单位):
一网卫星公司
制造商所在国:
英国
使用方式:
暂无
Satellite Introduction
OneWeb卫星网络由648颗重约125公斤的微型卫星组成,运行在1200公里的轨道上。 每颗卫星都能够提供至少每秒8千兆位的吞吐量,以使用其高吞吐量的Ku频段有效载荷为家庭和移动平台提供互联网接入。该卫星仍在工作。
2D Orbit Map
3D Orbit Map
Orbit Altitude Analysis Chart
Orbit Inclination Analysis Chart
Orbit Comprehensive Analysis Chart
View Comprehensive Chart